Location: Bacharowice
(49.9333°N, 19.5833°E)
Time: 16:11:36
(UTC+00:00)

Cosmos 1908 Rocket - Visible Passes

Search period start: 26 September 2021 00:00
Search period end: 06 October 2021 00:00
Orbit: 606 x 632 km, 82.5° (Epoch: 25 September)

Date Brightness Start Highest point End Pass type
(mag) Time Alt. Az. Time Alt. Az. Time Alt. Az.
26 Sep 7.0 02:47:31 10° NE 02:49:12 12° ENE 02:50:53 10° E visible
26 Sep 4.0 16:59:14 10° SSE 17:03:27 43° E 17:07:41 10° NNE visible
26 Sep 6.1 18:37:53 10° WSW 18:41:31 24° WNW 18:45:09 10° NNW visible
27 Sep 6.6 03:03:41 10° NNE 03:06:52 19° ENE 03:10:01 10° ESE visible
27 Sep 3.5 17:16:14 10° S 17:20:41 75° E 17:25:09 10° NNE visible
27 Sep 6.8 18:56:32 10° W 18:59:08 15° WNW 19:01:44 10° NNW visible
28 Sep 5.7 03:20:30 10° N 03:24:26 31° ENE 03:28:18 10° SE visible
28 Sep 4.1 17:33:35 10° SSW 17:38:01 63° WNW 17:42:27 10° N visible
29 Sep 4.5 03:37:34 10° N 03:41:53 52° ENE 03:46:08 10° SSE visible
29 Sep 5.3 17:51:17 10° SW 17:55:26 37° WNW 17:59:36 10° N visible
30 Sep 7.0 02:18:48 10° NE 02:20:39 12° ENE 02:22:29 10° E visible
30 Sep 3.6 03:54:49 10° N 03:59:15 90° SSW 04:03:36 10° S visible
30 Sep 6.2 18:09:24 10° WSW 18:12:58 23° WNW 18:16:31 10° NNW visible
01 Oct 6.4 02:35:04 10° NNE 02:38:18 20° ENE 02:41:31 10° ESE visible
01 Oct 3.6 16:47:39 10° S 16:52:07 78° E 16:56:35 10° NNE visible
01 Oct 6.9 18:28:08 10° W 18:30:35 14° WNW 18:33:02 10° NNW visible
02 Oct 5.5 02:51:54 10° N 02:55:51 32° ENE 02:59:46 10° SE visible
02 Oct 4.3 17:05:02 10° SSW 17:09:26 61° WNW 17:13:52 10° N visible
03 Oct 4.3 03:08:59 10° N 03:13:18 54° ENE 03:17:33 10° SSE visible
03 Oct 5.4 17:22:46 10° SW 17:26:52 35° WNW 17:30:59 10° N visible
04 Oct 6.8 01:50:06 10° NNE 01:52:05 13° ENE 01:54:04 10° E visible
04 Oct 3.5 03:26:15 10° N 03:30:39 86° W 03:34:59 10° S visible
04 Oct 6.3 17:40:56 10° WSW 17:44:24 22° WNW 17:47:53 10° NNW visible
05 Oct 6.2 02:06:26 10° NNE 02:09:44 20° ENE 02:13:00 10° ESE visible
05 Oct 3.7 03:43:40 10° NNW 03:47:54 48° W 03:52:04 10° SSW visible
05 Oct 6.8 17:59:44 10° W 18:02:02 14° WNW 18:04:20 10° NNW visible
